Location: ???????
(54.9567°N, 38.2836°E)
Time: 21:08:26
(UTC+00:00)

Meteor 2-4 Rocket - Pass Details

Date: 14 April 2024
Orbit: 799 x 907 km, 81.2° (Epoch: 23 May)

Event Time Altitude Azimuth Distance (km) Brightness Sun altitude
Rises 01:18:42 0° 188° (S) 3,311 6.4 -9.5°
Reaches altitude 10° 01:21:02 10° 188° (S) 2,394 5.7 -9.2°
Maximum altitude 01:26:27 81° 102° (ESE) 841 3.8 -8.6°
Drops below altitude 10° 01:32:03 10° 16° (NNE) 2,472 6.8 -7.9°
Sets 01:34:30 0° 15° (NNE) 3,428 7.6 -7.6°
